Weather Roundup
Issued by NWS

Home | Current Version | Previous Version | Text Only | Print | Product List | Glossary On
Versions: 1 2 3 4 5 6 7 8 9 10 11 12 13 14 15 16 17 18 19 20 21 22 23 24 25 26 27 28 29 30 31 32 33 34 35 36 37 38 39 40 41 42 43 44 45 46 47 48 49 50
029
NZUS93 KARX 292310
HRRWXR

CURRENT HOURLY OBSERVATIONS ACROSS
MUCH OF THE UPPER MISSISSIPPI VALLEY
NATIONAL WEATHER SERVICE LA CROSSE WI
600 PM CDT SAT APR 29 2017


...SOUTHEAST MINNESOTA...


CITY           SKY/WX    TMP DP  RH WIND       PRES   REMARKS
ROCHESTER      CLOUDY    48  30  49 NE20      30.11F
ROCHESTER/MAYO FAIR      49  30  47 NE12G21   30.12F
WINONA         CLOUDY    52  32  46 E9G17     30.14F
AUSTIN         PTSUNNY   48  28  46 NE21G26   30.08S
ALBERT LEA     PTSUNNY   48  27  43 NE23G29   30.06F
DODGE CENTER   CLOUDY    48  28  46 NE15G23   30.11F
PRESTON        CLOUDY    46  29  52 NE14G22   30.09F
OWATONNA       PTSUNNY   50  27  40 NE16G23   30.11F
FARIBAULT      CLOUDY    52  28  40 NE14G22   30.13F
$$

...ELSEWHERE IN MINNESOTA...


CITY           SKY/WX    TMP DP  RH WIND       PRES   REMARKS
MINNEAPOLIS    CLOUDY    55  21  26 NE20G28   30.17F
INTNL FALLS    SUNNY     54  16  22 E7        30.30F
DULUTH         MOSUNNY   45  17  32 E13       30.31F
RED WING       CLOUDY    54  23  30 NE9G26    30.12F
REDWOOD FALLS  CLOUDY    54  21  27 NE13G24   30.12F
MANKATO        CLOUDY    51  27  39 NE17      30.10
WORTHINGTON    CLOUDY    49  22  34 NE25G31   30.09R
FAIRMONT       PTSUNNY   50  27  40 NE28      30.07F
$$

...SOUTHWEST WISCONSIN...


CITY           SKY/WX    TMP DP  RH WIND       PRES   REMARKS
LA CROSSE      CLOUDY    51  29  42 NE12G18   30.15F
PRAIRIE DU CHI DRIZZLE   44  36  72 E10       30.12F
BOSCOBEL       LGT RAIN  45  36  70 E15       30.16F
LONE ROCK      LGT RAIN  43  36  76 E12       30.19F
PLATTEVILLE    CLOUDY    42  39  89 NE18G24   30.12F
FORT MC COY    CLOUDY    49  30  49 E13       30.18F
CAMP DOUGLAS   CLOUDY    47  30  53 E14G20    30.20F
MAUSTON-NEW LI CLOUDY    47  31  55 E8        30.20S
VIROQUA        CLOUDY    46  30  54 E20G25    30.16F
WIS DELLS      CLOUDY    44  29  56 NE14G20   30.21S
$$

...ELSEWHERE IN WISCONSIN...


CITY           SKY/WX    TMP DP  RH WIND       PRES   REMARKS
MILWAUKEE      LGT RAIN  39  35  86 N14       30.23R FOG     WCI  31
MADISON        LGT RAIN  41  35  79 NE17      30.22R
GREEN BAY      CLOUDY    47  33  58 NE15G23   30.25R
EAU CLAIRE     CLOUDY    53  26  35 NE13      30.16F
BLACK RVR FLS  FAIR      51  26  37 NE10G18   30.18S
MEDFORD        CLOUDY    48  27  44 NE14      30.20F
WAUSAU         CLOUDY    50  27  40 NE12G20   30.18F
WIS RAPIDS     CLOUDY    49  30  48 E10       30.21F
MARSHFIELD     CLOUDY    50  29  44 NE13      30.17F
RICE LAKE      CLOUDY    53  25  33 NE16      30.22F
$$

...NORTHEAST IOWA...


CITY           SKY/WX    TMP DP  RH WIND       PRES   REMARKS
WATERLOO       CLOUDY    45  35  68 NE23G29   30.01F
DUBUQUE        CLOUDY    41  37  86 NE22G30   30.06F
DECORAH        CLOUDY    46  30  53 NE18G33   30.05F
MASON CITY     CLOUDY    47  28  47 NE28G36   30.03F
CHARLES CITY   CLOUDY    46  27  46 NE25G33   30.05F
OELWEIN        CLOUDY    43  37  81 NE23G32   30.02F
$$

...ELSEWHERE IN IOWA...


CITY           SKY/WX    TMP DP  RH WIND       PRES   REMARKS
DES MOINES     CLOUDY    44  37  76 NE13G23   30.01R
IOWA CITY      CLOUDY    44  38  79 NE23G45   29.95F
FORT DODGE     CLOUDY    46  30  53 NE14G25   30.05R
MARSHALLTOWN   CLOUDY    43  37  79 NE31G40   29.94F
CEDAR RAPIDS   CLOUDY    42  39  89 NE22G29   29.98F
$$

...NORTHERN ILLINOIS...


CITY           SKY/WX    TMP DP  RH WIND       PRES   REMARKS
CHICAGO-OHARE  RAIN      40  37  89 NE18      30.12F FOG     WCI  31
CHICAGO-MIDWAY RAIN      41  40  96 NE23G30   30.10F FOG
MOLINE         LGT RAIN  41  37  86 NE21G30   29.99F
ROCKFORD       RAIN      39  35  86 NE18      30.14F FOG     WCI  30
PEORIA         HVY RAIN  42  41  96 NE16G24   29.93F FOG
$$

NOTE: "FAIR" INDICATES FEW OR NO CLOUDS BELOW 12,000 FEET WITH NO
SIGNIFICANT WEATHER AND/OR OBSTRUCTIONS TO VISIBILITY. WIND
SPEEDS ARE IN MILES-PER-HOUR.




USA.gov is the U.S. government's official web portal to all federal, state and local government web resources and services.